Theta_e
309 313 318 321 321 322 321 317 312 310 309 309 311 314 319 322 325 324 323 322 322 320 320 322 323 321 320 320 320 318 317 317 318 318 318 319 319 319 320 320 321 321 322 321 321 321 321 320 320 321 321 321 321 322 323 322 323 323 323 323 325 324 324 322 320 323 325 326 327 326 325 326 324 324 328 326 325 327 324 324 326 324 324 325 324 330 341
308 311 316 321 321 321 322 318 313 311 310 309 309 314 320 323 324 325 323 323 322 320 321 322 323 323 321 319 319 318 317 317 318 318 318 319 319 318 319 320 321 321 321 321 321 321 320 320 322 322 321 321 320 321 322 322 322 323 323 324 324 323 323 322 320 321 322 322 323 323 322 323 323 323 326 326 326 327 326 325 327 325 324 325 323 326 337
309 309 314 320 321 321 322 319 314 311 310 308 308 312 319 323 325 326 324 322 321 320 321 322 322 322 321 320 319 318 318 318 318 317 317 318 317 317 319 320 320 319 320 322 322 322 321 320 321 322 322 320 320 321 321 321 322 324 325 325 323 324 325 325 323 320 320 320 321 321 321 321 322 323 324 326 326 325 324 322 322 323 324 324 323 327 339
309 309 312 318 321 321 322 321 316 312 311 310 307 310 317 322 324 324 323 322 320 320 320 321 321 322 321 320 320 319 318 319 319 318 317 318 318 318 319 319 319 319 321 321 322 323 322 321 321 322 322 321 321 321 321 320 323 324 324 323 323 325 326 326 326 324 323 323 326 328 325 321 320 320 322 325 324 325 325 319 320 323 321 323 332 339 343
309 310 311 316 321 321 321 321 317 313 312 310 307 311 317 320 323 324 324 323 321 320 320 320 320 321 320 320 320 319 318 319 319 317 317 319 319 317 318 318 318 319 321 321 322 323 323 322 322 322 322 322 322 322 321 321 323 323 321 322 323 323 324 326 328 326 326 327 328 329 327 323 321 319 321 324 324 326 323 318 322 327 321 327 343 348 340
309 310 310 313 319 322 321 322 319 314 312 309 310 316 320 319 321 324 322 322 322 321 321 321 321 320 319 320 320 319 319 319 319 318 318 319 318 317 318 318 318 319 320 320 321 323 323 323 323 323 323 323 323 323 322 321 322 321 321 322 323 323 323 325 326 325 326 327 327 328 327 325 326 324 322 323 324 324 322 319 326 325 323 334 348 345 341
308 310 311 312 317 321 321 322 320 316 313 309 311 319 324 322 323 325 326 326 325 322 322 321 321 321 320 320 320 319 319 319 319 320 319 319 319 318 318 319 320 320 319 319 319 321 322 322 323 324 323 322 323 323 323 322 321 321 321 323 324 323 323 325 325 324 325 327 326 327 327 325 326 325 324 324 324 324 323 322 326 325 329 344 350 346 347
308 310 311 312 315 320 322 321 321 318 314 313 316 322 327 326 325 327 328 329 327 323 323 322 321 320 321 321 320 320 319 319 320 320 318 318 321 320 317 318 320 319 318 318 318 320 322 323 324 323 323 323 323 323 323 323 322 321 321 322 324 323 323 326 326 323 324 327 327 326 326 325 324 326 329 331 331 333 332 327 325 325 329 342 349 349 350
309 310 312 312 314 319 322 321 321 318 314 315 322 326 326 323 323 326 326 326 327 324 322 322 321 320 320 320 319 320 319 319 320 320 318 318 320 320 318 319 319 318 318 317 318 320 322 322 323 323 323 323 322 323 324 323 322 322 322 323 324 324 324 327 327 323 322 325 328 329 328 326 326 328 333 336 336 337 338 336 335 334 333 337 343 345 347
309 309 312 313 313 318 321 321 322 319 313 313 317 324 328 324 323 328 327 325 326 325 322 322 321 321 321 320 320 320 320 320 320 320 320 320 319 319 319 319 318 318 319 319 319 320 320 319 321 322 322 323 322 322 324 323 322 322 322 323 324 324 324 326 327 324 323 324 327 328 329 329 328 329 332 336 339 339 338 339 340 340 339 338 339 342 347
309 309 312 314 314 317 320 321 322 320 315 311 310 319 329 326 322 327 330 327 326 325 323 323 321 321 321 321 321 321 320 321 320 320 321 322 319 318 318 318 318 319 322 322 319 318 318 317 319 320 321 322 322 322 323 322 322 322 321 321 322 323 323 325 327 324 323 326 327 326 330 332 331 332 333 335 338 339 339 340 340 341 343 342 342 345 346
308 309 312 314 314 317 320 321 322 320 317 310 307 316 327 325 323 327 330 328 326 324 322 323 322 321 321 320 321 321 320 320 320 320 321 322 320 318 318 318 318 319 322 321 318 317 317 317 318 318 319 321 322 322 322 322 322 322 322 321 321 323 324 325 327 325 323 326 326 326 330 332 331 331 333 334 335 336 337 339 340 340 341 341 343 345 345
307 309 311 314 314 315 319 322 322 322 318 312 309 312 316 319 324 328 331 331 329 326 324 324 323 322 322 321 321 321 320 320 321 321 320 321 321 319 318 318 318 319 319 318 318 318 318 319 319 318 319 321 322 322 322 321 322 322 322 322 321 322 325 326 326 326 325 326 327 328 330 330 329 331 332 333 334 335 336 339 339 338 339 339 341 342 344
307 308 310 313 313 313 317 320 322 323 320 315 311 308 310 319 326 326 327 330 330 328 327 325 324 324 322 321 321 320 321 320 321 321 320 320 321 320 319 318 317 318 317 317 319 318 318 321 320 318 321 322 320 322 323 321 322 322 320 322 321 321 325 327 329 329 326 325 328 330 330 330 331 332 330 331 333 334 336 338 338 337 338 338 338 340 342
306 307 309 312 312 312 313 316 320 323 321 318 314 308 312 323 324 320 324 330 329 329 328 325 325 325 323 322 321 320 321 321 320 321 321 321 320 320 319 318 317 318 316 317 320 319 320 321 319 321 328 326 320 322 323 321 322 322 321 322 320 321 325 327 328 330 327 325 326 328 329 331 332 331 329 329 330 331 334 335 334 337 339 337 336 337 340
306 307 308 310 311 312 312 313 317 321 323 321 315 309 315 323 320 315 322 327 327 327 327 324 325 324 322 322 321 319 321 321 320 321 321 321 320 319 319 317 317 317 317 318 321 321 321 321 319 323 329 327 322 322 323 321 321 322 322 321 320 322 327 326 325 326 326 326 327 327 329 333 333 332 329 327 328 330 330 330 330 333 338 337 337 337 338
307 307 308 309 310 311 312 312 314 319 322 322 316 312 317 323 318 313 317 323 327 328 326 325 325 324 322 322 321 320 321 321 321 322 322 322 321 320 319 317 317 317 318 319 322 322 322 321 319 320 324 325 324 322 321 320 320 321 323 323 320 322 325 324 323 323 324 326 328 330 331 332 332 330 329 329 329 328 327 329 330 332 334 337 338 340 340
307 307 307 308 309 310 312 312 313 317 321 323 319 314 314 316 314 312 315 322 328 327 324 323 323 322 322 323 322 322 320 320 322 322 321 323 323 320 319 318 317 318 319 320 322 322 321 321 320 319 321 324 322 318 317 318 319 320 323 323 321 322 324 323 322 322 323 324 327 331 332 331 328 329 330 330 331 329 327 329 332 332 333 335 337 340 340
308 308 307 308 309 310 312 312 313 317 321 323 321 316 315 316 314 312 315 320 325 325 324 324 324 322 323 322 321 322 320 320 322 321 321 324 324 321 320 318 318 320 319 320 323 323 322 324 325 320 320 322 320 317 318 319 321 322 322 322 322 322 323 325 325 325 327 328 328 331 332 330 327 329 331 331 333 331 329 330 331 332 334 334 335 338 339
308 308 309 309 309 311 312 313 314 317 321 323 321 317 318 319 314 311 313 319 323 324 322 323 323 322 322 321 321 321 321 321 322 321 321 324 324 321 320 319 319 321 320 320 322 323 322 325 327 322 320 322 321 319 318 319 320 323 323 323 323 323 323 324 326 327 329 329 329 329 330 330 328 330 332 332 333 332 331 330 331 333 334 334 335 336 337
307 308 309 310 310 312 314 315 315 317 321 323 321 316 317 318 315 312 312 314 318 320 320 321 323 322 322 322 321 321 321 321 322 321 321 323 324 322 321 321 320 321 321 321 322 323 323 325 325 322 323 323 320 320 320 318 319 322 323 324 324 324 325 325 325 327 328 328 328 328 329 329 328 330 332 332 331 331 331 330 331 333 333 333 334 336 336
307 308 310 310 312 314 315 316 317 319 321 322 319 314 315 319 320 319 314 310 311 315 315 316 319 320 321 323 322 322 323 322 321 321 321 324 325 323 323 324 323 322 324 324 324 324 324 324 324 323 324 323 320 320 320 319 319 320 320 323 324 324 327 327 326 328 330 328 328 328 328 327 327 328 329 329 329 329 329 329 330 332 333 333 334 335 336
306 308 311 311 313 315 316 317 318 320 322 322 318 312 314 321 324 321 314 309 311 314 313 313 317 320 321 322 321 322 324 322 322 322 321 323 325 323 323 325 325 324 325 325 326 326 324 323 324 324 325 326 324 321 320 322 323 321 318 322 324 324 324 327 327 327 328 327 327 327 327 327 327 327 327 327 327 328 328 328 329 330 331 333 333 333 333
306 308 311 312 313 315 316 318 319 320 321 321 318 312 313 319 320 316 313 313 317 320 318 316 318 320 321 321 321 321 322 321 321 321 321 322 323 323 322 323 324 325 325 325 326 327 325 324 325 325 325 327 326 323 322 324 326 324 321 321 322 321 321 325 326 325 326 326 326 327 326 325 326 326 326 326 326 326 327 327 327 328 329 331 332 332 332
305 308 311 312 314 316 317 318 319 320 321 321 318 313 311 314 317 317 317 319 321 322 322 320 319 319 320 320 320 321 321 320 320 320 320 320 320 322 323 323 323 324 326 325 325 324 324 324 324 323 325 327 325 323 324 325 325 324 324 324 322 320 320 322 325 325 326 327 327 326 326 326 326 326 326 325 325 325 326 327 327 327 327 328 328 329 331
305 308 311 313 314 316 318 318 319 320 321 321 319 314 310 314 318 319 318 320 321 321 321 322 321 320 320 320 320 319 319 320 320 320 320 320 319 320 322 323 324 324 325 324 323 322 323 324 324 323 325 327 325 323 325 326 325 322 324 325 323 321 321 323 325 326 327 327 325 325 325 325 327 328 327 326 326 325 325 326 326 326 326 327 327 327 328
306 309 312 313 314 316 318 319 319 319 320 320 320 315 311 312 316 315 316 320 324 324 321 320 321 321 320 320 321 320 319 320 321 320 320 320 319 318 320 322 324 324 323 323 322 322 323 324 324 323 325 326 325 324 324 326 325 323 323 325 323 322 322 324 324 325 326 325 325 325 326 326 327 327 326 326 326 326 326 326 326 325 326 327 327 327 327
307 310 312 313 314 316 318 318 318 318 318 319 320 318 313 311 312 311 312 316 320 323 323 322 322 323 322 321 321 320 319 320 320 320 320 320 319 319 319 320 322 322 322 322 322 322 323 323 323 323 325 325 324 323 324 324 323 323 323 324 324 324 325 325 325 325 326 326 325 325 327 328 327 326 325 325 326 326 326 325 325 325 325 326 327 327 327
308 311 313 313 315 317 318 318 318 318 319 320 320 318 314 311 310 311 312 311 312 317 320 320 319 323 324 322 321 320 320 320 320 319 320 320 320 320 320 320 321 321 321 322 322 322 323 322 322 324 326 324 322 322 323 323 321 322 325 325 324 325 326 327 326 326 326 326 325 324 327 329 328 326 326 325 325 326 327 326 325 325 325 325 325 325 326
309 312 314 314 315 317 318 318 318 319 320 320 318 317 317 317 315 315 315 312 310 314 319 320 320 322 322 321 321 320 320 320 320 319 320 320 320 320 320 321 321 321 321 322 322 322 323 322 323 326 326 324 322 323 324 323 323 324 326 326 325 325 326 326 327 326 326 326 325 325 327 329 328 326 326 324 323 325 327 327 325 323 323 324 325 325 325
310 313 314 315 316 317 318 319 319 319 320 319 317 317 320 323 321 319 317 311 308 313 319 320 320 321 321 321 321 321 320 320 319 319 320 320 320 321 321 321 321 321 322 323 322 322 323 323 323 326 326 323 322 322 323 323 324 325 326 326 325 325 325 326 326 327 326 325 324 324 326 327 325 324 325 324 322 323 325 326 324 321 320 322 324 324 323
312 314 315 316 317 318 318 319 319 319 319 318 317 317 321 323 323 322 319 312 308 313 319 319 318 320 321 321 321 321 321 320 319 319 319 319 321 322 322 322 323 322 322 323 323 322 323 323 324 326 326 323 321 320 320 321 324 326 326 326 326 326 325 326 326 327 326 324 322 322 325 325 323 323 325 324 323 323 324 325 325 322 319 321 323 323 323
313 314 315 317 318 318 319 320 319 319 319 319 317 317 319 320 320 319 317 312 309 314 319 319 318 318 320 321 322 322 321 320 319 319 320 320 321 323 322 322 323 323 322 323 324 324 322 323 324 325 326 324 321 319 318 320 324 326 326 326 326 326 326 325 325 325 325 323 322 323 325 324 323 324 325 324 323 322 323 323 323 322 321 321 322 323 324
314 315 317 317 318 318 319 319 319 319 319 319 318 316 316 317 317 315 312 311 312 315 318 319 319 319 319 321 322 322 321 320 319 319 320 321 322 323 323 322 323 324 323 322 323 324 324 323 324 326 327 326 323 321 321 323 325 326 326 326 326 326 325 325 324 324 324 322 323 325 326 325 324 325 325 323 322 321 321 321 321 321 321 321 321 321 322
315 316 317 318 318 319 319 319 320 320 318 317 317 317 316 315 316 314 312 313 317 319 319 317 318 320 321 322 323 322 321 321 320 320 321 323 322 322 323 323 323 323 323 322 322 324 325 324 324 326 327 327 325 323 323 325 327 326 326 326 326 326 325 325 324 324 324 323 323 325 326 325 325 324 323 322 322 321 321 321 320 320 321 321 321 321 321
317 317 318 318 318 319 319 320 319 318 317 317 319 319 317 315 316 315 313 314 317 320 320 317 316 317 320 322 323 321 320 321 321 321 321 323 323 322 323 324 323 323 324 323 322 324 325 324 324 325 326 327 327 326 326 326 328 327 325 326 326 326 325 326 325 325 324 323 323 324 324 323 323 323 322 322 322 322 322 321 321 320 320 320 321 322 321
318 318 318 319 319 319 319 319 317 316 316 317 318 316 314 315 316 316 315 315 317 318 319 320 318 317 318 319 321 321 320 320 321 322 322 323 323 323 323 324 325 325 325 324 323 324 325 326 325 325 326 327 328 328 327 327 327 327 326 326 326 326 325 325 325 325 324 324 324 324 323 322 322 323 323 323 322 322 322 321 321 320 320 320 320 321 320
318 318 318 318 319 319 319 318 316 314 315 316 315 314 314 315 317 317 318 318 319 318 319 320 320 319 318 318 321 322 321 319 320 323 324 324 324 324 323 323 324 325 324 324 325 324 325 326 326 325 326 328 328 327 327 327 326 327 327 326 326 326 325 325 325 325 325 325 324 324 323 323 322 322 322 322 322 322 322 322 321 321 321 321 320 320 321
318 318 318 318 319 319 320 319 316 314 315 315 316 317 318 317 317 319 318 318 319 320 319 318 319 319 318 319 321 322 322 321 321 324 325 325 324 325 325 324 324 324 323 324 325 324 323 326 327 325 327 330 330 327 326 326 326 327 327 327 326 326 325 325 325 325 325 324 324 324 323 323 322 322 322 323 322 322 322 322 322 322 321 321 321 321 321
318 318 318 318 318 318 319 317 315 314 315 316 317 318 319 317 316 318 317 316 317 318 318 317 318 318 318 319 321 321 322 322 322 323 325 325 324 325 326 325 324 324 323 324 325 324 323 326 327 325 327 329 329 327 326 326 326 326 326 327 327 326 325 325 325 324 324 323 323 324 324 323 323 323 323 323 323 322 322 321 321 321 321 321 320 321 321
317 318 318 318 318 317 316 315 314 316 318 318 317 317 318 318 317 317 317 317 317 317 316 316 317 317 317 318 320 320 321 322 321 322 324 325 324 324 325 325 325 324 324 324 325 325 324 325 326 325 327 329 329 327 327 327 326 326 326 327 327 326 326 325 324 324 324 324 324 324 323 323 323 323 322 322 322 322 321 321 321 321 321 321 320 320 320
318 317 318 318 318 316 315 315 317 319 319 318 317 317 317 318 317 317 317 318 317 316 316 316 316 317 317 317 319 321 322 322 321 322 324 325 323 322 324 325 325 324 325 325 325 324 325 325 325 325 327 329 329 328 328 327 327 327 327 327 327 326 326 325 324 323 324 324 324 324 323 323 323 323 323 323 322 322 322 321 321 320 320 320 319 319 319
317 317 317 317 317 316 316 317 318 319 318 317 317 318 318 317 317 318 318 317 317 317 317 316 316 317 317 316 319 323 323 322 321 323 324 324 323 322 323 324 325 325 325 325 324 325 325 325 324 325 327 328 328 328 327 327 327 328 328 327 327 326 325 324 324 324 324 325 325 324 324 324 324 323 322 322 322 321 321 321 320 319 319 319 318 318 317
316 316 317 318 317 317 317 317 318 318 319 318 318 318 318 317 318 318 318 317 317 317 318 317 317 317 317 317 320 323 323 321 321 322 323 324 323 323 322 323 324 325 325 324 324 325 325 324 325 326 327 327 327 327 327 327 327 327 327 326 326 325 325 324 325 325 325 325 324 324 323 323 322 321 321 321 320 320 319 318 318 317 317 316 316 315 315
316 317 317 317 317 317 317 317 317 318 319 318 318 318 318 317 317 317 317 317 317 318 319 318 318 318 318 317 319 322 323 321 320 322 324 324 324 323 323 324 324 324 324 324 324 324 324 325 326 327 327 327 327 327 327 327 327 327 327 326 325 325 325 325 325 325 324 323 323 322 322 321 320 320 319 318 318 317 316 316 315 315 314 314 314 314 314
317 318 317 317 317 316 316 316 317 317 318 319 318 319 318 317 317 318 318 317 317 318 320 319 318 319 319 317 317 320 321 320 320 321 323 324 324 324 324 325 324 324 324 324 324 324 324 326 326 327 327 327 327 327 327 327 327 327 326 326 325 325 325 325 324 324 323 322 321 321 320 319 318 318 317 317 316 315 315 314 314 313 313 313 313 313 312
318 318 317 317 317 316 316 317 317 318 319 320 319 319 319 319 318 318 319 320 320 322 323 321 319 319 319 317 317 319 321 322 321 321 322 324 324 324 324 324 324 324 325 324 324 324 325 326 326 327 327 327 327 327 327 327 326 326 326 326 325 325 324 324 323 322 321 320 319 319 318 318 317 316 316 316 316 315 314 313 312 312 311 311 311 311 310
318 317 317 317 317 317 317 318 318 319 320 320 320 320 321 320 320 320 321 321 321 322 322 323 323 321 318 318 320 322 323 324 323 323 323 324 325 324 324 324 324 324 324 324 324 325 326 326 326 327 327 327 327 327 327 327 326 326 326 325 324 323 323 322 321 320 319 318 317 317 317 316 316 315 315 314 314 314 312 312 311 311 310 310 310 310 309
317 317 317 317 318 318 319 319 319 320 320 320 320 320 320 320 320 322 322 320 319 320 322 323 325 324 322 321 322 324 324 324 324 324 324 324 324 324 324 324 324 325 324 324 325 326 326 327 327 327 327 327 327 327 326 326 326 325 325 324 323 322 321 320 320 319 317 316 316 316 316 315 314 314 314 314 313 312 311 311 310 310 310 309 309 309 309
316 316 317 318 318 319 320 320 320 321 321 320 320 320 320 319 320 321 322 322 322 322 322 323 324 324 324 322 322 322 324 324 323 323 324 323 323 323 324 324 324 325 325 324 324 325 326 326 327 327 326 326 326 326 326 325 325 324 323 322 321 320 320 319 318 317 316 315 315 315 315 314 314 314 313 312 312 311 311 310 310 309 309 308 308 308 308
316 316 317 318 318 318 319 319 320 321 321 320 320 320 320 319 320 321 323 324 324 323 323 324 324 323 322 321 321 322 324 324 323 323 323 323 323 323 324 324 324 325 325 324 324 325 326 326 326 326 325 325 325 325 325 325 324 323 322 321 320 319 319 317 316 315 315 315 314 314 314 314 313 312 312 311 310 310 310 310 309 308 308 308 308 307 307
315 316 318 319 319 319 319 319 319 320 320 319 319 319 319 319 321 322 323 323 323 323 323 324 324 322 320 321 322 323 323 323 323 323 323 323 323 323 323 323 324 325 324 323 323 324 324 324 324 324 325 325 325 325 325 324 323 322 321 320 319 318 317 316 315 314 314 314 313 313 312 312 311 311 310 310 310 310 310 310 309 308 308 308 307 307 307
Wind_Speed
16 13 11 12 13 15 15 16 17 16 12 7 8 11 13 14 7 7 11 9 8 10 9 8 11 6 3 2 1 4 2 7 3 3 3 2 2 3 4 2 2 4 3 3 4 2 2 5 4 2 2 1 4 3 2 4 5 4 6 3 6 6 3 3 7 9 10 16 11 12 14 14 13 12 12 10 9 9 8 6 4 3 3 2 0 0 1
15 13 11 11 12 14 14 15 15 15 15 11 10 11 11 15 14 6 9 8 9 10 8 6 9 6 2 4 3 3 3 5 3 6 5 3 3 4 5 3 2 3 2 4 6 0 1 6 5 4 5 2 5 1 2 2 4 2 2 4 4 3 3 2 5 7 6 8 8 9 12 9 9 9 12 13 12 13 11 9 3 3 3 3 2 1 3
15 14 11 10 11 13 13 14 14 13 14 13 13 14 12 15 16 10 11 7 9 11 11 8 10 9 2 3 5 5 6 4 3 7 6 4 6 6 4 4 4 5 3 4 6 2 3 3 4 5 6 1 3 4 2 2 4 3 8 7 6 3 3 3 4 6 6 4 3 3 4 7 8 11 13 16 15 15 12 8 5 4 4 5 3 3 7
15 14 12 9 10 11 12 13 13 13 13 13 12 13 11 11 10 7 10 9 10 13 15 13 12 8 2 3 6 6 6 6 5 6 5 3 5 7 5 4 2 4 4 4 5 4 3 1 2 2 3 4 4 2 2 6 2 7 7 5 5 5 4 4 6 8 9 7 8 11 11 7 9 12 15 13 15 14 11 9 6 3 3 3 1 6 10
15 14 12 10 9 10 11 11 12 12 13 13 12 11 10 9 8 8 5 5 8 10 14 15 11 7 4 2 4 6 6 4 7 4 3 1 4 7 4 4 4 3 4 5 4 3 3 3 1 1 2 5 8 2 5 7 4 7 3 5 4 5 5 5 8 10 12 13 13 15 15 12 7 9 14 15 12 14 12 13 6 1 1 2 3 9 11
14 14 12 11 9 9 10 10 10 11 11 12 12 9 10 9 10 13 8 3 7 7 8 12 11 8 7 3 4 6 7 3 5 5 2 1 4 5 3 4 5 4 5 5 5 4 4 4 5 6 3 4 8 5 7 6 4 2 7 7 5 5 4 6 9 10 12 13 14 15 14 12 13 11 14 16 14 12 14 16 12 6 2 6 9 13 13
13 13 12 11 10 9 10 10 10 9 9 10 9 8 10 11 12 14 12 10 11 7 4 5 9 9 6 2 2 4 6 7 6 3 1 3 2 2 5 3 2 5 5 4 4 4 4 2 3 6 6 5 5 5 6 7 5 5 5 2 1 3 4 6 9 9 11 12 13 16 14 12 16 16 13 13 15 15 16 16 15 13 6 14 18 16 15
12 13 12 11 10 9 9 9 10 9 7 7 7 9 11 11 11 13 16 16 16 13 9 5 5 5 4 2 4 5 6 10 5 4 3 6 1 0 6 5 3 5 5 3 5 4 4 2 2 1 6 6 3 3 6 9 7 5 4 2 1 1 3 5 7 7 9 12 13 14 16 16 16 13 8 8 9 10 12 11 10 10 5 13 20 16 12
11 12 11 11 9 8 9 8 9 10 7 5 8 10 11 12 10 11 12 10 11 12 10 8 6 5 5 5 6 6 7 10 5 4 3 5 4 3 5 4 3 4 4 5 7 4 3 1 4 7 7 5 2 2 6 9 6 2 3 2 1 2 3 5 6 5 8 9 7 9 11 10 5 9 15 17 15 15 14 9 6 7 4 7 14 11 7
11 11 11 11 9 8 9 8 8 9 6 6 9 9 12 14 11 9 10 8 8 9 8 8 8 6 6 7 7 6 8 9 5 4 2 5 7 7 6 5 3 5 4 3 3 4 4 5 5 5 6 6 7 10 11 10 6 3 3 2 2 3 4 4 2 3 8 6 7 14 11 2 5 9 14 14 13 13 15 15 17 17 11 2 5 6 6
11 10 10 10 9 8 8 8 7 8 6 6 7 7 12 15 12 11 9 6 8 10 9 8 8 7 9 10 8 6 7 8 3 4 3 6 5 4 4 4 5 4 2 4 4 4 6 9 8 6 8 8 9 10 9 9 5 3 3 4 4 4 4 3 1 1 7 7 4 6 5 1 2 6 8 10 13 15 15 16 17 17 14 9 6 5 5
10 10 9 9 9 8 8 8 7 7 6 6 5 4 8 12 11 10 8 5 7 11 10 8 9 10 11 12 9 7 7 8 3 6 6 7 1 2 4 5 4 2 4 4 5 5 6 7 7 7 9 9 9 9 10 8 5 5 5 5 4 3 2 3 3 3 4 5 5 3 2 1 3 5 7 6 10 13 14 16 17 16 14 11 8 5 4
10 9 9 8 8 7 7 8 8 6 6 6 5 5 6 8 8 8 8 6 6 9 10 11 15 16 13 11 10 8 8 9 3 6 4 7 3 3 6 5 3 2 3 4 4 4 5 5 4 5 6 6 8 9 8 8 8 8 7 4 4 3 1 0 3 4 4 2 2 2 1 2 2 5 5 4 6 10 12 13 13 13 12 10 7 4 5
10 9 9 9 8 7 7 8 8 8 7 6 6 6 4 5 6 6 6 5 6 10 12 12 13 15 13 13 11 8 9 9 4 5 4 7 6 7 6 4 3 3 3 3 2 3 5 4 3 3 2 3 5 5 7 9 10 11 8 3 4 3 0 1 1 4 5 1 2 1 1 2 2 3 5 4 3 6 9 7 8 11 10 8 6 6 4
11 10 10 9 9 8 7 7 8 9 8 7 7 6 3 4 6 5 4 5 6 10 12 10 11 17 16 13 12 8 8 7 5 3 6 6 7 7 3 2 3 3 3 4 3 3 3 4 3 2 2 3 3 3 5 6 8 11 8 4 5 3 3 2 2 2 2 0 2 3 2 2 2 2 5 6 6 4 7 8 7 9 8 9 8 6 8
11 11 11 10 10 9 8 8 9 10 10 9 8 6 2 3 7 6 5 6 5 6 9 11 14 20 18 12 13 11 8 6 4 4 5 5 8 8 3 2 4 3 4 5 4 3 4 4 4 1 2 3 2 1 3 4 5 7 5 3 5 4 5 3 3 2 2 1 1 2 2 2 2 4 5 5 6 6 2 3 6 7 8 11 9 3 5
11 12 11 11 11 10 9 9 9 10 11 10 9 7 5 4 7 6 5 6 7 10 14 15 17 17 13 8 8 10 9 5 2 2 4 5 8 8 5 4 5 5 6 6 3 4 5 4 3 1 4 5 3 2 4 5 3 4 4 3 6 6 4 4 4 3 3 3 2 0 1 2 3 6 6 6 7 8 6 3 4 6 9 12 10 6 6
11 12 12 12 12 11 10 10 9 10 12 12 10 9 7 6 7 7 6 6 8 11 15 16 16 16 11 10 11 10 10 5 3 3 5 4 7 7 7 7 6 5 7 6 4 5 5 4 3 1 4 6 5 2 2 3 3 2 4 5 5 4 3 4 5 3 3 4 3 2 0 4 7 8 9 9 8 6 2 3 2 5 8 12 12 9 7
11 12 12 12 12 11 11 11 9 9 11 12 11 9 7 6 6 6 6 7 7 11 14 14 14 16 15 15 18 15 7 7 5 5 5 3 5 6 5 6 6 5 5 5 5 5 4 2 3 3 3 5 4 2 1 1 1 2 3 4 4 2 1 1 1 2 1 2 3 3 1 5 10 10 9 12 7 0 3 3 3 5 8 11 13 10 7
11 12 12 12 12 12 12 12 10 9 10 12 12 10 8 7 6 6 6 7 8 12 16 13 11 14 15 15 17 14 4 5 6 6 4 2 5 6 4 5 6 5 5 5 5 4 2 2 4 3 0 1 2 2 2 2 2 2 2 2 1 1 2 3 2 2 2 3 3 3 1 4 9 8 6 9 5 5 5 4 6 8 9 10 11 9 8
11 11 12 12 11 11 12 12 10 8 9 11 11 10 8 7 6 7 8 9 9 10 13 11 8 10 14 14 13 12 7 6 8 8 6 3 5 6 3 1 3 4 3 3 4 2 1 2 5 3 1 2 1 1 1 2 5 5 3 1 1 2 2 2 2 3 2 1 2 3 2 4 8 5 4 7 8 7 6 6 9 9 9 9 10 9 9
11 11 11 11 11 10 11 9 7 7 8 10 10 9 7 4 4 8 10 11 11 13 17 17 13 12 15 14 10 6 5 3 4 6 5 4 6 7 4 4 4 4 4 3 3 3 2 3 4 1 0 2 1 2 2 0 3 4 3 2 1 2 1 4 5 5 4 3 4 6 7 7 11 12 11 10 11 11 10 10 11 10 10 9 8 9 9
12 11 12 11 10 9 8 6 5 6 8 9 10 10 9 7 4 6 9 9 12 15 18 19 17 16 16 15 11 7 4 2 2 4 3 4 4 8 6 5 5 5 5 4 3 3 4 4 3 2 2 3 2 0 1 1 1 3 5 5 2 2 5 6 5 7 9 8 8 9 10 10 11 12 12 11 12 12 12 13 13 12 11 10 9 9 9
12 12 12 12 10 8 6 5 5 7 8 9 10 10 11 10 7 6 7 7 10 12 13 13 16 16 15 14 14 12 11 9 5 3 3 4 4 4 5 5 4 4 2 2 3 4 6 5 2 0 1 3 4 3 1 1 2 1 3 6 6 5 5 5 6 8 7 6 7 9 10 10 10 10 11 11 12 12 11 11 12 11 11 11 10 9 9
13 12 12 12 9 7 6 5 6 7 8 10 10 10 11 11 7 5 6 7 8 8 8 9 13 16 15 14 14 16 16 13 9 7 7 7 7 5 1 0 1 1 0 2 4 7 8 5 2 3 2 2 4 3 2 1 2 3 1 1 4 4 2 2 6 7 5 6 9 10 9 9 9 10 10 10 10 10 10 11 11 11 11 11 10 10 9
13 12 12 11 9 7 5 6 7 8 8 9 10 10 11 10 8 6 6 7 9 8 7 8 10 12 14 14 14 15 14 11 10 10 9 7 7 5 2 1 2 3 2 4 5 8 8 5 4 4 2 1 3 2 1 2 3 1 2 2 3 2 2 3 7 7 6 8 10 9 8 8 9 10 10 10 9 9 9 9 10 10 10 10 10 11 10
12 11 11 11 10 8 7 7 8 9 9 9 10 10 11 12 10 8 6 5 6 6 6 7 9 9 10 12 12 12 12 12 11 10 9 8 8 7 4 4 5 5 6 7 6 6 7 6 5 4 1 1 2 2 2 2 3 2 3 5 4 3 1 3 4 4 4 7 9 7 4 6 9 10 9 8 8 8 8 8 9 9 9 9 10 10 10
10 11 11 11 10 8 8 8 8 10 11 11 11 11 11 12 11 10 8 8 7 6 6 10 13 12 9 11 13 11 11 12 12 11 10 9 9 8 7 7 7 7 8 8 6 5 6 5 4 2 0 0 2 3 3 2 2 4 1 5 6 3 6 5 3 4 6 9 9 6 5 9 11 10 8 8 7 7 7 7 7 8 8 8 8 9 9
10 10 11 10 10 9 8 8 8 8 9 10 11 10 10 9 9 8 8 9 9 8 10 12 13 11 9 10 13 13 13 13 14 13 10 8 8 9 9 8 9 9 9 8 7 6 6 6 3 1 1 2 2 2 3 3 4 2 4 9 9 10 12 9 6 7 9 10 8 6 8 12 13 9 8 7 6 6 7 7 7 8 8 8 7 8 8
9 10 10 10 10 9 8 9 8 7 6 6 6 7 7 6 5 6 8 10 9 7 8 9 8 8 9 10 12 15 16 15 15 13 11 9 9 10 9 9 9 10 9 7 6 6 6 6 4 3 2 1 2 2 4 4 3 4 8 11 10 10 11 9 8 9 10 10 9 8 10 12 11 8 8 7 4 5 8 8 7 6 6 6 7 7 7
9 9 9 9 9 9 8 9 9 8 7 6 6 7 5 5 8 10 10 10 9 8 7 8 8 9 11 11 11 14 15 15 15 13 11 10 9 7 7 8 9 9 8 6 6 6 6 5 4 3 4 3 3 3 4 4 2 5 8 10 9 9 11 10 10 11 12 11 10 9 9 10 8 6 7 6 5 5 6 5 4 4 4 5 5 5 5
9 9 9 9 9 9 9 9 9 10 9 9 11 11 5 3 8 11 10 9 10 8 6 8 8 7 6 7 11 14 14 15 15 13 10 10 10 7 7 7 7 8 7 6 6 7 6 5 5 3 4 5 4 3 5 5 2 6 10 9 8 9 11 11 10 10 10 10 8 7 8 8 6 5 7 8 7 6 5 5 4 4 4 3 3 4 5
9 8 8 9 9 9 9 9 10 11 11 11 14 14 8 2 3 6 7 9 11 9 7 7 6 5 5 6 9 13 14 13 15 14 11 9 9 7 8 8 7 7 8 6 5 5 6 6 5 3 4 4 4 4 5 3 4 10 12 10 10 10 10 10 10 9 9 8 6 5 5 7 8 9 9 9 7 5 4 4 3 2 2 2 1 2 4
9 8 8 9 8 8 8 9 9 10 10 10 9 10 9 6 4 4 8 10 9 7 8 8 7 4 4 3 4 12 17 15 14 13 11 10 10 8 8 9 7 7 8 9 7 6 5 6 6 4 5 4 5 5 4 3 8 12 11 10 10 10 10 10 10 9 8 8 6 6 7 8 11 12 9 6 5 5 4 2 1 1 2 1 1 2 3
9 9 8 7 6 6 8 9 9 9 9 8 6 6 8 8 5 6 9 10 7 6 8 9 8 5 2 3 2 11 18 15 12 13 11 10 11 10 8 7 7 6 7 7 7 6 5 6 7 5 4 5 5 5 4 4 8 11 10 10 10 10 10 10 9 9 9 8 7 7 8 9 9 8 6 5 5 4 3 2 1 0 0 1 1 2 4
7 6 5 4 4 5 7 8 9 9 7 6 5 8 9 7 5 7 9 10 9 6 6 8 8 6 4 3 3 9 14 13 11 12 11 8 8 10 10 7 5 4 5 7 7 6 5 6 7 5 4 6 4 1 2 3 8 9 9 10 10 9 8 10 10 10 10 9 8 8 8 7 7 6 5 5 5 4 3 3 2 0 1 2 2 3 3
3 3 2 1 2 4 5 5 6 8 9 7 6 6 6 5 5 7 8 10 11 10 9 8 6 6 9 8 3 6 11 11 10 10 9 8 8 9 10 8 5 3 4 6 7 5 5 5 5 4 4 5 4 4 3 4 8 8 7 10 11 9 8 9 10 10 10 10 9 8 7 7 7 7 6 5 5 4 3 3 2 1 1 2 2 1 1
4 3 2 1 2 4 4 5 6 8 10 9 5 4 5 6 6 6 8 9 9 11 11 9 8 10 13 9 4 5 7 8 9 9 8 9 8 8 9 9 6 5 5 5 5 6 6 4 4 5 4 2 6 9 7 5 7 8 7 9 11 11 9 9 11 11 11 11 10 9 8 8 7 7 6 5 5 4 4 3 2 2 2 2 2 1 2
5 3 2 2 3 4 4 5 7 8 7 7 5 4 5 7 6 5 8 9 8 9 11 10 10 13 12 7 6 8 7 6 7 7 5 5 5 5 6 5 4 5 6 4 3 6 6 4 3 5 2 3 3 6 9 8 8 9 9 9 11 11 10 9 10 10 10 10 9 9 9 7 6 7 6 5 4 4 5 4 3 3 3 3 3 3 4
5 3 2 3 4 5 4 6 7 6 5 6 6 4 4 7 7 6 6 8 7 7 10 11 12 15 14 8 5 8 9 8 6 4 3 2 3 1 2 3 2 4 6 4 3 4 6 4 3 3 2 2 5 10 12 11 10 10 11 11 11 11 11 10 9 9 8 7 7 8 8 6 5 6 6 6 6 5 5 5 5 4 4 4 4 4 4
6 4 3 3 3 3 5 7 7 6 4 4 5 4 4 6 8 7 6 5 5 7 11 13 12 13 14 13 8 8 11 10 5 1 3 3 2 1 2 3 3 5 4 2 4 4 4 3 4 3 3 8 11 11 10 11 11 12 12 12 12 12 11 10 9 9 9 8 7 7 7 6 6 5 5 5 5 5 4 4 4 4 4 4 4 4 4
7 6 5 3 2 3 6 7 7 5 3 2 3 4 4 5 6 7 6 5 6 7 11 14 13 11 13 15 12 8 11 13 9 4 3 4 4 5 3 1 2 4 3 2 4 3 3 3 4 2 4 10 12 12 11 11 12 12 12 12 12 12 11 11 10 9 8 9 8 8 7 7 7 5 5 5 5 4 3 3 3 3 3 3 3 4 5
6 6 6 4 3 4 5 6 6 4 2 1 1 3 4 4 5 5 5 6 9 8 9 12 12 11 12 14 11 6 7 11 11 7 5 4 3 3 3 2 2 2 1 2 3 4 4 4 3 3 7 11 12 13 13 13 13 13 13 12 12 11 11 11 11 10 9 9 9 9 9 9 8 7 5 5 5 4 4 3 2 2 2 3 3 4 6
5 6 5 5 5 5 3 3 4 3 3 3 4 4 5 6 6 5 5 6 8 8 9 12 12 10 10 13 11 6 6 8 8 7 6 6 4 3 4 4 2 1 1 3 3 4 4 3 3 7 13 14 14 13 14 13 13 14 13 12 12 12 12 12 12 12 12 11 11 10 10 9 7 5 4 4 4 4 4 3 1 1 2 3 3 4 5
6 7 5 3 3 4 2 1 3 4 4 4 5 5 6 6 6 6 7 9 10 10 11 13 13 11 11 13 10 6 7 8 8 6 5 5 5 5 3 2 2 2 3 3 3 3 3 2 5 10 15 15 14 15 15 14 14 15 14 14 14 14 14 15 14 13 13 12 10 9 8 7 5 3 3 2 2 2 2 1 0 1 1 2 2 3 4
7 9 7 2 1 4 4 3 3 4 5 6 8 8 8 8 6 4 4 7 10 10 11 14 14 11 11 11 9 7 8 8 6 5 4 4 4 3 1 1 2 4 4 4 4 4 3 4 7 12 15 15 15 15 14 14 15 15 16 16 16 15 15 15 14 13 11 10 8 6 5 5 4 4 4 3 3 2 2 1 1 0 1 1 2 4 6
6 7 6 2 2 5 6 5 5 6 7 9 10 10 10 11 8 3 3 4 3 1 2 10 14 12 10 10 8 6 7 7 5 4 4 3 2 1 2 2 4 4 4 5 6 3 3 8 13 15 16 17 17 16 15 15 15 16 16 16 16 15 14 13 12 10 9 8 6 5 5 5 5 5 5 4 4 3 2 1 0 1 2 2 3 5 6
5 5 4 3 2 4 7 8 9 9 10 10 9 8 10 14 12 6 5 4 2 3 4 4 7 8 8 8 4 2 2 4 4 3 2 1 1 1 2 3 5 4 4 5 3 0 4 11 16 18 18 19 18 18 17 17 16 17 17 17 16 15 13 11 10 8 7 6 6 6 6 6 6 5 5 4 4 3 2 1 1 2 2 3 4 5 6
6 5 4 4 5 7 9 10 10 9 8 10 13 11 9 11 12 6 6 8 6 4 1 2 1 1 4 6 4 2 2 3 3 2 2 3 3 3 3 4 5 5 3 1 1 2 6 13 17 17 18 18 18 18 18 17 17 18 17 16 15 13 12 10 9 8 7 7 7 7 7 6 5 5 5 4 4 3 2 1 2 2 2 3 3 4 5
7 5 6 7 8 6 5 6 7 5 4 8 14 13 9 9 12 7 7 13 12 9 5 2 3 2 2 3 3 3 3 3 2 3 4 5 4 4 4 4 3 2 1 3 6 8 12 15 17 17 17 17 17 18 18 18 18 18 17 15 14 13 11 10 9 8 7 7 7 7 6 6 5 5 5 4 3 3 2 1 2 2 2 2 2 3 4
6 5 8 12 12 8 5 5 6 4 4 9 13 12 13 12 9 4 7 11 12 11 7 3 1 1 2 2 2 3 3 3 3 4 5 4 4 4 4 4 2 1 2 8 13 15 15 15 16 16 17 17 17 18 19 19 18 17 16 15 15 14 13 11 10 9 8 8 7 7 6 6 5 5 5 4 3 3 3 2 1 2 1 1 2 3 4
5 6 8 13 14 12 11 13 12 9 11 14 13 9 8 7 4 9 9 8 7 8 7 4 2 2 2 2 1 2 3 4 4 5 4 3 2 2 2 3 2 2 5 9 13 13 14 14 15 15 16 17 18 18 19 18 17 16 16 15 14 14 13 13 11 10 9 8 7 6 6 5 4 4 4 4 4 4 4 2 1 1 2 1 2 3 4
Wind_Direction
331 327 328 328 329 334 335 336 337 338 335 313 284 286 274 259 251 155 168 200 214 228 252 261 256 249 80 345 285 109 232 255 288 338 284 262 265 284 311 335 347 312 292 289 280 249 346 314 307 343 239 180 65 90 194 255 275 298 285 306 19 356 290 275 287 282 287 293 271 195 204 235 232 216 209 223 243 230 232 246 208 203 229 208 328 344 175
331 327 325 326 327 330 333 336 337 340 343 334 311 304 286 275 279 225 180 211 224 233 253 256 269 276 165 235 241 132 265 279 325 334 329 337 314 309 324 332 318 296 295 300 297 64 45 297 324 331 274 112 81 256 267 305 281 297 10 3 7 340 293 278 281 278 259 268 264 191 181 216 244 234 207 207 231 236 246 269 243 175 216 188 154 219 160
331 327 323 322 323 326 330 333 335 337 341 339 324 314 301 289 280 224 184 212 232 239 256 266 285 294 243 232 235 199 225 238 270 300 302 313 316 316 320 325 312 299 299 284 283 265 223 273 5 335 289 79 118 221 225 285 272 29 40 358 317 308 310 279 263 265 242 224 273 256 203 205 227 246 228 201 207 228 243 256 241 209 217 208 202 174 137
330 326 323 317 318 322 324 328 331 333 337 334 324 314 299 285 277 222 187 199 219 238 256 265 275 276 218 229 242 225 219 179 178 272 262 234 292 296 296 311 291 280 296 293 281 273 265 318 69 270 304 337 298 212 229 268 262 66 35 333 295 292 287 269 263 268 273 287 305 305 297 259 208 228 246 223 199 212 242 253 239 229 226 236 37 120 136
328 326 322 313 312 316 318 324 325 328 334 332 325 308 279 269 283 279 246 201 212 236 245 246 259 284 298 266 185 210 243 170 150 227 264 348 293 278 282 301 290 295 329 321 307 309 328 352 338 264 21 316 288 265 263 271 87 81 287 246 237 268 268 267 266 261 266 274 283 293 296 285 251 224 242 252 220 196 221 244 234 117 186 259 51 106 125
325 325 321 312 309 308 311 317 317 322 328 327 326 304 264 256 267 276 293 275 219 222 235 238 239 256 272 263 161 209 248 230 179 199 210 343 271 258 232 242 267 305 345 335 334 346 334 333 343 351 358 285 291 305 272 252 129 156 244 217 215 269 270 271 274 266 266 268 268 274 274 274 280 255 230 247 248 210 211 227 224 222 179 116 105 108 111
322 323 321 312 306 303 307 311 309 314 318 314 317 294 266 273 278 286 318 313 264 266 331 276 237 235 243 229 225 252 254 249 225 173 195 254 233 290 289 281 297 314 329 329 317 326 324 313 359 340 304 275 302 331 305 282 260 262 270 237 263 301 275 273 280 277 278 277 264 258 254 257 270 264 237 235 247 241 235 227 217 228 198 113 107 104 100
320 319 319 314 305 298 302 307 305 308 312 307 297 275 273 294 304 314 329 320 298 302 315 286 245 253 267 251 253 260 256 259 251 132 221 269 38 339 278 299 319 294 311 305 276 312 7 67 122 265 274 278 302 344 313 292 274 275 307 339 111 205 274 278 280 276 270 268 263 249 241 247 262 278 315 334 322 317 296 260 229 241 229 109 104 101 97
318 317 318 315 306 297 295 301 306 307 311 315 294 281 297 318 322 317 313 305 306 306 286 266 261 249 238 234 239 236 239 261 273 130 175 282 323 301 289 321 310 272 281 278 277 319 25 169 198 209 228 253 261 211 254 269 278 290 287 283 209 227 276 278 274 275 250 253 307 317 276 259 294 2 10 1 358 11 4 346 3 355 333 113 110 107 109
314 314 317 316 307 296 291 292 301 301 303 307 295 302 332 336 325 316 307 284 286 292 272 262 264 250 237 235 226 218 228 244 238 154 172 269 270 283 322 347 294 255 240 252 300 353 333 292 276 250 247 250 221 210 229 258 286 311 287 282 270 256 272 275 285 299 264 250 17 359 329 319 51 24 15 10 11 28 31 27 28 20 7 55 115 111 122
310 309 315 318 312 295 284 285 294 296 299 300 297 325 352 344 331 325 318 285 267 273 260 243 244 249 259 254 227 204 238 250 189 140 271 277 233 230 289 300 284 286 2 30 5 337 301 291 293 283 269 263 247 240 253 266 270 278 275 269 267 268 280 284 222 255 281 290 345 349 335 56 58 29 35 34 33 39 42 39 32 24 27 45 57 61 96
305 304 308 315 314 300 282 277 283 290 296 299 297 319 336 336 333 323 308 282 266 268 260 247 243 240 248 255 238 205 235 260 191 160 242 276 217 182 259 258 258 301 16 358 307 287 270 261 267 271 261 260 267 265 262 266 262 252 255 266 282 287 282 287 280 247 269 303 300 280 104 120 326 33 67 71 54 53 50 41 32 25 28 40 46 42 54
297 296 299 305 312 309 289 274 271 278 285 283 281 284 300 324 336 324 310 296 272 266 271 274 263 245 229 236 241 223 236 255 187 136 239 281 282 251 255 247 249 322 343 303 283 286 273 247 235 259 266 262 260 259 270 300 304 275 266 290 308 297 253 238 302 280 254 253 291 284 127 159 305 11 44 95 87 66 52 36 25 25 28 28 25 16 72
290 287 290 296 304 310 299 278 264 264 270 270 274 282 303 332 325 314 315 304 277 284 291 290 282 269 247 239 249 247 238 231 160 119 251 269 264 248 235 221 242 304 316 277 256 258 269 268 220 221 301 298 260 277 317 325 303 279 272 290 291 284 320 103 296 284 268 220 104 275 263 150 140 23 32 56 62 76 88 68 31 32 37 39 22 342 10
289 285 286 290 296 303 305 289 266 256 259 262 263 265 287 316 296 289 307 300 294 295 282 266 288 300 285 252 241 249 241 212 164 185 237 245 259 255 226 204 251 271 275 260 247 228 246 270 246 180 37 319 269 317 327 308 287 274 257 246 268 253 157 169 259 268 264 282 130 176 190 171 187 14 34 29 10 49 127 120 63 48 57 73 70 1 342
288 285 283 284 289 295 300 297 275 255 249 249 250 247 248 286 276 269 284 284 281 285 272 270 296 309 303 268 236 238 249 230 193 209 218 224 244 241 209 227 247 234 236 242 243 252 256 261 257 166 128 205 215 246 269 265 284 278 248 213 253 233 147 154 247 225 162 140 216 211 204 224 277 336 1 17 5 336 255 139 73 58 71 83 94 86 13
286 282 279 282 287 291 296 299 286 261 248 245 245 238 216 236 265 268 273 274 269 269 274 287 299 299 298 289 249 235 240 242 211 227 238 238 239 224 192 204 224 223 235 240 233 243 246 244 253 161 147 176 176 182 233 236 252 289 311 273 240 219 164 171 209 194 163 168 172 13 285 281 322 333 336 1 359 317 280 161 76 31 61 83 92 99 96
284 282 281 283 288 292 297 300 291 266 249 243 244 240 230 239 261 268 271 276 277 271 272 285 291 282 287 324 318 273 234 202 166 223 239 234 228 218 192 189 207 216 225 239 246 238 242 250 256 201 160 182 191 190 245 235 202 228 289 281 250 223 194 198 199 188 180 174 148 103 220 292 319 324 328 336 327 305 287 131 73 19 59 85 86 84 90
286 284 284 286 289 295 299 299 292 268 249 245 245 237 230 242 256 265 273 275 275 276 280 289 290 283 288 304 302 284 233 168 171 220 233 221 222 227 196 190 219 227 210 230 255 246 246 276 258 234 189 187 190 174 203 234 160 191 247 265 270 273 323 329 254 212 155 124 102 87 173 284 304 313 335 342 332 31 86 84 84 54 64 80 83 86 87
288 286 285 287 291 296 300 298 289 270 252 249 247 236 226 235 248 257 263 274 288 284 278 280 289 293 293 284 279 280 254 165 191 223 233 207 202 216 211 198 221 233 211 225 252 251 270 304 268 260 280 173 185 167 189 187 145 171 240 270 302 334 32 30 16 55 79 99 103 113 155 313 316 307 335 7 30 127 128 104 88 67 61 75 81 78 77
290 286 283 286 290 296 300 294 281 267 256 252 250 242 230 233 261 275 260 260 282 279 266 269 288 300 300 291 280 281 271 226 220 226 237 226 192 209 257 250 207 222 218 228 248 250 263 258 248 234 166 189 199 159 185 165 145 164 213 243 345 358 21 68 61 62 92 144 100 119 142 35 24 41 81 61 75 111 120 98 85 72 66 75 73 71 78
288 282 280 283 284 292 300 292 268 255 255 252 248 238 218 206 281 292 270 260 269 268 265 273 278 279 288 294 289 277 268 253 226 218 245 268 213 216 278 313 247 262 329 340 279 251 240 253 264 295 225 227 203 164 190 181 134 161 178 178 300 327 105 119 85 75 109 127 101 109 113 83 71 84 95 86 81 86 85 81 78 73 75 78 72 70 75
288 283 279 279 279 285 296 286 257 252 255 255 248 233 212 193 212 261 268 275 282 281 279 280 276 271 273 271 259 246 233 211 180 190 246 292 225 208 228 249 251 277 322 338 321 304 292 292 321 7 345 312 313 238 147 105 199 179 147 125 125 192 173 150 118 106 109 107 111 113 104 92 86 84 83 82 78 76 77 77 74 71 74 79 81 81 77
289 284 278 275 274 279 284 272 256 258 258 255 249 235 223 216 224 262 287 289 285 287 288 274 255 252 256 250 238 229 223 222 221 209 231 278 277 234 210 216 249 272 262 283 313 293 286 301 333 343 307 307 305 316 60 74 301 255 129 123 122 145 182 173 145 141 132 114 120 121 110 110 113 101 90 84 79 77 79 79 76 74 74 74 75 81 87
288 284 276 271 269 270 271 258 250 256 260 256 249 241 231 223 226 262 284 287 287 292 297 278 249 239 243 243 229 218 220 224 223 217 218 232 252 267 289 219 280 275 126 312 277 248 258 286 286 250 241 237 269 312 51 40 336 13 45 97 100 116 212 186 124 127 126 116 122 123 119 121 120 111 103 95 87 84 83 83 84 81 75 73 72 70 76
288 282 275 267 263 260 255 248 244 249 257 256 249 243 234 220 210 215 238 279 297 284 271 283 274 247 235 234 222 209 208 208 203 211 220 223 231 248 321 360 231 205 237 276 252 239 255 276 271 265 265 228 284 335 85 225 259 109 102 77 82 119 197 127 109 115 124 130 137 141 138 129 115 102 97 93 91 88 81 79 83 77 70 71 71 67 67
287 280 273 264 258 254 251 250 246 246 253 257 255 248 237 225 217 212 217 256 286 266 243 269 285 269 236 225 216 204 201 201 203 210 219 225 233 236 230 220 216 218 235 242 233 240 260 268 266 273 286 136 263 263 172 217 268 261 155 153 165 188 169 111 134 154 147 137 140 142 136 124 117 109 102 98 97 96 87 76 73 71 68 69 69 69 68
289 281 273 263 254 250 249 251 253 256 259 258 255 252 245 232 221 214 217 230 244 260 289 299 299 299 276 233 219 209 205 208 214 218 217 217 226 228 217 207 210 218 225 227 227 236 245 248 256 277 6 181 230 210 169 157 254 272 199 147 147 93 59 69 98 111 109 115 118 106 92 106 114 113 106 101 99 97 94 83 75 72 71 70 67 65 64
289 277 271 263 251 243 240 243 252 269 274 263 253 255 255 243 226 220 227 236 242 258 288 297 293 291 282 248 226 218 215 214 218 222 221 214 218 226 219 203 206 219 222 223 233 242 242 246 249 120 65 330 290 212 199 198 207 208 80 90 96 85 78 75 73 92 114 120 108 88 98 114 120 118 110 104 97 96 99 95 83 74 67 67 70 64 59
286 274 267 259 247 240 240 246 252 265 276 260 245 252 255 235 217 220 230 237 242 252 274 287 285 276 270 254 226 213 213 216 218 217 216 216 222 224 211 192 200 223 230 224 229 243 251 248 226 132 112 317 316 270 242 230 191 135 98 92 97 98 95 86 74 88 115 122 108 99 109 119 124 125 118 109 91 92 99 92 81 74 64 59 65 63 59
277 270 260 248 238 234 242 252 253 253 255 239 222 232 237 201 195 209 221 228 230 236 258 270 271 273 271 256 231 218 214 212 213 213 212 217 222 213 195 189 199 216 228 226 220 231 252 248 215 148 138 202 260 279 265 256 210 141 120 107 107 112 111 105 99 101 112 118 114 116 124 127 129 136 135 126 112 106 108 94 74 75 77 69 69 67 59
268 262 247 234 231 231 237 246 248 248 251 240 225 222 214 173 198 213 220 224 221 223 249 261 254 259 264 240 223 224 219 209 209 212 209 209 208 194 186 199 207 209 223 240 232 225 236 238 222 176 147 182 218 260 271 273 235 136 131 122 118 121 120 120 123 123 123 125 129 138 147 146 135 116 121 125 118 108 111 108 88 78 81 82 84 82 70
263 252 235 226 228 233 240 246 246 248 254 248 235 227 220 203 217 218 213 214 215 217 238 256 251 243 244 228 215 218 220 212 207 207 202 196 195 190 192 204 211 203 205 220 231 222 221 227 219 172 139 169 212 243 257 255 133 132 140 138 131 131 131 131 134 133 133 141 144 131 137 150 141 121 118 123 119 108 112 118 104 93 96 88 103 111 87
260 242 228 226 230 241 255 256 251 250 249 241 234 234 238 247 254 224 205 205 213 223 232 246 259 252 250 274 231 211 213 211 202 198 195 185 184 192 195 196 202 200 195 204 221 221 214 222 221 185 153 173 217 238 241 180 134 138 146 143 138 142 142 140 142 141 142 150 143 103 92 113 126 126 126 129 126 124 131 135 132 138 131 136 210 154 108
254 238 229 229 237 261 275 265 250 241 234 223 216 234 249 254 245 217 199 194 209 234 228 229 242 244 248 323 274 199 203 207 201 198 196 183 186 205 203 183 190 201 191 199 225 228 208 214 225 215 185 185 203 225 236 177 145 148 154 150 149 153 151 148 150 150 148 152 148 130 123 125 130 135 146 151 149 149 149 152 201 255 164 303 333 57 63
248 234 229 234 254 284 286 262 233 213 206 210 218 226 236 242 231 217 207 203 219 249 247 231 233 225 216 252 233 189 196 201 194 193 192 173 180 210 211 189 191 204 184 194 225 229 196 200 212 208 200 201 200 242 288 182 154 154 162 160 157 162 164 159 156 154 154 156 152 144 148 154 154 153 156 159 161 161 158 168 187 181 335 315 348 21 14
213 202 210 230 276 288 282 255 223 203 195 200 211 214 217 221 223 228 228 225 230 244 256 259 256 233 226 234 212 175 192 193 177 181 195 185 179 204 212 202 196 193 190 215 232 211 156 168 200 219 233 220 169 104 91 165 160 157 168 168 164 169 171 162 161 162 161 161 161 160 163 169 168 162 163 173 179 178 181 205 220 227 250 261 274 324 309
171 188 212 230 256 261 243 215 208 204 194 190 197 214 212 210 218 230 230 226 227 232 238 252 263 247 238 234 202 181 201 198 181 183 199 194 182 191 206 203 184 176 200 227 223 191 167 163 207 237 248 211 143 134 141 159 157 156 165 166 165 171 173 166 169 174 170 168 173 175 174 179 183 179 178 188 198 200 204 218 236 236 229 241 260 267 272
184 201 226 228 235 245 230 198 196 199 194 190 200 218 211 205 212 222 213 207 212 222 223 229 244 246 244 232 194 198 216 222 204 190 196 220 212 196 207 213 181 184 217 224 175 190 208 208 209 223 232 56 109 168 175 174 169 171 175 171 168 174 177 172 176 183 182 181 185 185 185 193 197 190 189 194 198 204 209 212 218 218 213 224 244 251 257
198 200 213 229 238 241 226 196 183 180 190 203 208 212 210 208 211 212 202 198 207 219 218 218 228 236 238 238 218 206 212 227 226 166 135 263 298 332 272 262 222 203 229 224 154 196 235 228 201 216 192 146 200 205 192 182 178 177 177 176 176 179 179 175 176 181 180 175 171 174 182 191 185 179 188 196 197 204 214 215 215 217 219 227 239 246 258
196 188 188 219 249 233 199 183 176 177 192 212 216 216 215 215 216 216 210 206 211 211 209 210 216 221 223 225 223 202 191 202 227 216 130 176 225 221 224 242 226 221 238 206 154 198 241 223 210 220 162 163 182 189 181 176 176 173 173 176 176 175 174 173 173 174 170 160 152 155 164 168 164 165 174 182 188 198 206 206 210 215 217 224 235 244 256
198 185 177 189 214 177 162 164 173 186 195 205 225 231 223 215 216 213 211 224 232 211 197 201 210 213 208 209 213 199 171 168 180 214 214 194 206 218 217 209 228 236 230 143 148 190 217 215 226 220 144 155 168 170 168 171 172 169 171 173 171 170 171 170 167 163 157 152 150 150 150 149 148 149 148 151 158 165 167 171 183 194 209 230 248 257 268
195 172 163 164 159 152 162 174 183 198 210 188 207 239 230 213 214 212 207 224 234 219 188 191 203 206 197 195 194 180 162 168 178 196 202 177 177 224 224 201 218 237 190 142 184 213 204 204 223 183 161 168 173 170 166 168 167 166 167 167 166 166 167 164 160 154 147 144 144 142 139 135 131 128 129 135 141 144 145 146 147 162 206 247 267 273 277
170 164 169 172 161 156 170 185 177 191 229 214 199 215 218 207 207 211 203 208 219 211 187 186 196 197 189 186 181 164 162 184 196 198 184 167 170 220 228 206 186 177 175 187 211 223 212 200 179 167 170 173 172 167 163 162 161 160 159 159 161 161 158 155 151 144 139 138 137 133 131 130 127 125 124 123 126 132 135 131 134 203 245 270 285 290 292
166 176 173 157 153 162 170 188 191 210 234 227 212 221 227 216 209 214 210 200 201 200 191 189 197 200 187 179 182 187 183 183 191 193 179 172 193 219 222 178 149 200 225 219 215 221 219 179 150 159 165 165 162 161 161 157 154 153 150 150 153 153 149 146 144 139 137 141 143 140 137 137 142 156 164 150 133 134 141 141 158 274 287 304 309 302 296
184 186 173 143 188 197 197 205 203 203 218 224 219 223 234 231 222 234 241 211 197 194 191 189 194 202 190 175 178 200 196 182 179 186 184 191 209 209 146 110 196 220 229 226 221 219 209 174 161 162 161 158 156 158 156 151 150 150 147 146 147 147 145 143 141 139 140 143 144 144 145 148 159 175 180 162 142 135 134 130 111 6 335 327 320 310 298
203 192 181 188 222 210 212 222 226 231 245 244 230 229 253 263 257 260 299 271 250 311 226 201 194 193 191 186 186 193 188 180 182 184 180 191 210 159 122 196 228 228 226 228 231 222 161 161 166 165 161 160 160 158 155 151 151 150 147 145 145 146 146 145 143 143 145 144 143 150 156 155 157 163 164 154 138 128 124 123 80 347 335 326 322 318 313
206 192 196 208 204 210 218 225 232 245 263 274 263 249 262 271 261 222 188 207 238 2 348 266 217 196 185 179 168 135 159 182 186 171 152 163 209 167 182 222 231 224 220 227 246 359 136 154 158 159 161 162 160 155 152 152 152 150 149 147 146 146 146 146 145 148 152 154 159 163 160 155 155 156 155 148 138 128 122 98 23 2 356 346 336 330 326
205 207 225 234 241 244 236 231 234 240 253 275 277 267 263 275 274 247 144 132 155 170 142 13 351 175 161 149 133 126 200 200 184 163 174 201 202 195 214 232 230 222 216 208 39 90 148 151 151 155 161 160 155 152 153 154 154 153 151 149 147 146 147 149 153 157 160 165 169 166 159 156 156 152 147 145 146 147 132 66 36 16 360 353 341 326 319
221 234 243 238 245 264 264 242 243 241 226 249 258 248 232 248 263 250 137 121 132 148 146 92 50 64 112 135 155 186 200 197 191 193 202 208 212 218 229 237 246 263 243 134 140 153 158 154 152 156 159 156 153 154 155 154 153 154 153 150 148 148 151 157 162 163 164 169 171 165 157 153 152 153 156 160 158 151 135 95 64 37 6 360 353 337 333
224 242 249 241 244 264 288 267 260 263 251 253 252 235 215 219 231 190 137 139 143 145 149 156 117 108 131 154 179 184 170 167 189 209 213 215 219 221 219 224 240 262 142 143 145 148 152 155 156 156 156 156 156 157 156 155 156 156 154 153 151 151 154 161 165 166 167 170 168 161 153 147 147 154 162 160 145 140 142 129 70 53 42 25 16 16 11
220 234 247 245 243 247 252 252 252 243 232 239 247 240 216 203 137 106 125 155 161 155 159 162 148 154 171 172 166 168 162 167 196 213 212 207 207 215 230 233 218 139 128 144 153 154 153 155 157 157 157 159 160 158 157 158 159 158 158 158 157 156 157 159 162 166 172 174 169 161 156 154 153 150 145 140 141 151 161 166 118 78 95 80 40 33 31